USA 148

Last updated on June 27, 2019, 3:44 a.m. UTC

1 26052U 00001A   19177.81888274  .00000046  00000-0  00000+0 0  9996
2 26052   7.8710  48.6952 0002502  20.5870 320.4407  1.00271365  6073
UTC
Height (km)
Latitude
Longitude
Inclination
Orbital Period
UTC large
Height (km)
Speed (km/s)
/
Latitude / Longitude
Inclination (degrees)
Orbital Period (minutes)
Azimuth
Elevation
Range (km)
Doppler Factor
iOS Compass Heading
iOS Angle

Next 30 passes for location: Hong Kong

Rise time Rise Azimuth (degrees) Set time Set Azimuth (degrees) Duration Max altitude (degrees)

No matching passes for this satellites